• In Russia
  • List of Countries
  • For 7 days
  • Water Temperature
  • Satellite Maps
  • Weather Map
  • Weather Widgets
  • user-avatar
    Login

    Hourly Weather Annaba

    Today, 12 December, Tuesday

    Time Temperature Precipitation Wind Pressure Humidity
    00:00 +13°C° 0 mm 5 mps 755 mmHg 63%
    01:00 +12°C° 0 mm 4 mps 755 mmHg 64%
    02:00 +12°C° 0 mm 4 mps 756 mmHg 63%
    03:00 +12°C° 0 mm 3 mps 756 mmHg 61%
    04:00 +12°C° 0 mm 3 mps 756 mmHg 60%
    05:00 +11°C° 0 mm 3 mps 756 mmHg 59%
    06:00 +11°C° 0 mm 3 mps 757 mmHg 57%
    07:00 +11°C° 0 mm 3 mps 757 mmHg 58%
    08:00 +12°C° 0 mm 3 mps 757 mmHg 55%
    09:00 +14°C° 0 mm 3 mps 758 mmHg 52%
    10:00 +16°C° 0 mm 2 mps 758 mmHg 49%
    11:00 +18°C° 0 mm 2 mps 758 mmHg 45%
    12:00 +19°C° 0 mm 2 mps 758 mmHg 41%
    13:00 +22°C° 0 mm 1 mps 758 mmHg 39%
    14:00 +21°C° 0 mm 2 mps 758 mmHg 43%
    15:00 +20°C° 0 mm 2 mps 759 mmHg 47%
    16:00 +20°C° 0 mm 2 mps 759 mmHg 50%
    17:00 +18°C° 0 mm 3 mps 759 mmHg 57%
    18:00 +17°C° 0 mm 3 mps 760 mmHg 63%
    19:00 +14°C° 0 mm 3 mps 760 mmHg 70%
    20:00 +14°C° 0 mm 3 mps 761 mmHg 74%
    21:00 +15°C° 0 mm 2 mps 761 mmHg 78%
    22:00 +15°C° 0 mm 2 mps 762 mmHg 81%
    23:00 +14°C° 0 mm 2 mps 762 mmHg 84%

    Tomorrow, 13 December, Wednesday

    Time Temperature Precipitation Wind Pressure Humidity
    00:00 +14°C° 0 mm 2 mps 763 mmHg 87%
    01:00 +13°C° 0 mm 3 mps 763 mmHg 90%
    02:00 +13°C° 0.1 mm 3 mps 763 mmHg 91%
    03:00 +13°C° 0.1 mm 3 mps 764 mmHg 92%
    04:00 +13°C° 0.1 mm 3 mps 764 mmHg 94%
    05:00 +13°C° 0.1 mm 3 mps 764 mmHg 93%
    06:00 +13°C° 0.1 mm 3 mps 765 mmHg 93%
    07:00 +13°C° 0.1 mm 4 mps 765 mmHg 93%
    08:00 +13°C° 0.1 mm 4 mps 765 mmHg 89%
    09:00 +14°C° 0.1 mm 4 mps 766 mmHg 86%
    10:00 +14°C° 0.1 mm 4 mps 766 mmHg 83%
    11:00 +15°C° 0.1 mm 5 mps 766 mmHg 80%
    12:00 +15°C° 0.1 mm 5 mps 766 mmHg 77%
    13:00 +15°C° 0.1 mm 5 mps 766 mmHg 74%
    14:00 +15°C° 0.1 mm 5 mps 766 mmHg 75%
    15:00 +14°C° 0.1 mm 5 mps 766 mmHg 75%
    16:00 +14°C° 0.1 mm 5 mps 766 mmHg 76%
    17:00 +13°C° 0 mm 5 mps 767 mmHg 79%
    18:00 +13°C° 0 mm 4 mps 767 mmHg 82%
    19:00 +12°C° 0 mm 4 mps 768 mmHg 85%
    20:00 +11°C° 0 mm 4 mps 768 mmHg 85%
    21:00 +11°C° 0 mm 4 mps 768 mmHg 86%
    22:00 +11°C° 0 mm 4 mps 768 mmHg 86%
    23:00 +10°C° 0 mm 4 mps 768 mmHg 86%

    Day after tomorrow, 14 December, Thursday

    Time Temperature Precipitation Wind Pressure Humidity
    00:00 +10°C° 0 mm 4 mps 768 mmHg 86%
    01:00 +10°C° 0 mm 3 mps 768 mmHg 86%
    02:00 +10°C° 0 mm 3 mps 768 mmHg 86%
    03:00 +10°C° 0 mm 3 mps 767 mmHg 86%
    04:00 +10°C° 0 mm 3 mps 767 mmHg 86%
    05:00 +9°C° 0 mm 3 mps 767 mmHg 86%
    06:00 +9°C° 0 mm 3 mps 767 mmHg 87%
    07:00 +9°C° 0 mm 3 mps 767 mmHg 87%
    08:00 +11°C° 0 mm 3 mps 767 mmHg 81%
    09:00 +12°C° 0 mm 3 mps 767 mmHg 76%
    10:00 +14°C° 0 mm 3 mps 767 mmHg 70%
    11:00 +16°C° 0 mm 2 mps 766 mmHg 62%
    12:00 +17°C° 0 mm 2 mps 766 mmHg 54%
    13:00 +19°C° 0 mm 2 mps 765 mmHg 46%
    14:00 +19°C° 0 mm 2 mps 764 mmHg 48%
    15:00 +20°C° 0 mm 1 mps 764 mmHg 49%
    16:00 +20°C° 0 mm 1 mps 763 mmHg 51%
    17:00 +18°C° 0 mm 1 mps 763 mmHg 54%
    18:00 +15°C° 0 mm 1 mps 763 mmHg 57%
    19:00 +14°C° 0 mm 1 mps 763 mmHg 60%
    20:00 +14°C° 0 mm 2 mps 763 mmHg 57%
    21:00 +13°C° 0 mm 2 mps 763 mmHg 54%
    22:00 +13°C° 0 mm 2 mps 763 mmHg 52%
    23:00 +12°C° 0 mm 3 mps 763 mmHg 50%

    15 December, Friday

    Time Temperature Precipitation Wind Pressure Humidity
    00:00 +12°C° 0 mm 3 mps 762 mmHg 48%
    01:00 +12°C° 0 mm 3 mps 762 mmHg 46%
    02:00 +12°C° 0 mm 3 mps 762 mmHg 48%
    03:00 +11°C° 0 mm 3 mps 761 mmHg 49%
    04:00 +11°C° 0 mm 3 mps 761 mmHg 51%
    05:00 +11°C° 0 mm 3 mps 761 mmHg 52%
    06:00 +11°C° 0 mm 4 mps 760 mmHg 53%
    07:00 +11°C° 0 mm 4 mps 760 mmHg 54%
    08:00 +13°C° 0 mm 4 mps 760 mmHg 51%
    09:00 +16°C° 0 mm 3 mps 760 mmHg 49%
    10:00 +17°C° 0 mm 3 mps 760 mmHg 46%
    11:00 +19°C° 0 mm 3 mps 759 mmHg 43%
    12:00 +20°C° 0 mm 3 mps 759 mmHg 40%
    13:00 +22°C° 0 mm 3 mps 758 mmHg 36%
    14:00 +21°C° 0 mm 2 mps 758 mmHg 41%
    15:00 +20°C° 0 mm 2 mps 757 mmHg 46%
    16:00 +19°C° 0 mm 2 mps 757 mmHg 51%
    17:00 +18°C° 0 mm 2 mps 757 mmHg 55%
    18:00 +16°C° 0 mm 2 mps 757 mmHg 59%
    19:00 +15°C° 0 mm 2 mps 757 mmHg 63%
    20:00 +15°C° 0 mm 2 mps 758 mmHg 63%
    21:00 +15°C° 0 mm 2 mps 758 mmHg 64%
    22:00 +14°C° 0 mm 2 mps 758 mmHg 65%
    23:00 +14°C° 0 mm 2 mps 758 mmHg 65%

    16 December, Saturday

    Time Temperature Precipitation Wind Pressure Humidity
    00:00 +14°C° 0 mm 2 mps 758 mmHg 64%
    01:00 +14°C° 0 mm 2 mps 757 mmHg 63%
    02:00 +14°C° 0 mm 2 mps 757 mmHg 63%
    03:00 +13°C° 0 mm 2 mps 757 mmHg 64%
    04:00 +13°C° 0 mm 2 mps 756 mmHg 64%
    05:00 +13°C° 0.1 mm 2 mps 756 mmHg 63%
    06:00 +13°C° 0.1 mm 2 mps 756 mmHg 63%
    07:00 +13°C° 0.1 mm 2 mps 756 mmHg 63%
    08:00 +13°C° 0.6 mm 3 mps 756 mmHg 66%
    09:00 +13°C° 0.6 mm 3 mps 757 mmHg 70%
    10:00 +13°C° 0.6 mm 4 mps 757 mmHg 74%
    11:00 +12°C° 1.2 mm 4 mps 757 mmHg 77%
    12:00 +12°C° 1.2 mm 4 mps 757 mmHg 81%
    13:00 +12°C° 1.2 mm 4 mps 758 mmHg 84%
    14:00 +12°C° 0.3 mm 4 mps 758 mmHg 85%
    15:00 +12°C° 0.3 mm 4 mps 758 mmHg 86%
    16:00 +12°C° 0.3 mm 4 mps 758 mmHg 88%
    17:00 +11°C° 0 mm 3 mps 759 mmHg 87%
    18:00 +11°C° 0 mm 3 mps 759 mmHg 86%
    19:00 +11°C° 0 mm 3 mps 760 mmHg 85%
    20:00 +10°C° 0 mm 3 mps 761 mmHg 85%
    21:00 +10°C° 0 mm 3 mps 761 mmHg 85%
    22:00 +9°C° 0 mm 2 mps 761 mmHg 85%
    23:00 +9°C° 0 mm 2 mps 761 mmHg 85%

    17 December, Sunday

    Time Temperature Precipitation Wind Pressure Humidity
    00:00 +9°C° 0 mm 2 mps 762 mmHg 84%
    01:00 +9°C° 0 mm 2 mps 762 mmHg 83%
    02:00 +9°C° 0 mm 2 mps 761 mmHg 83%
    03:00 +9°C° 0 mm 3 mps 761 mmHg 82%
    04:00 +8°C° 0 mm 3 mps 761 mmHg 82%
    05:00 +8°C° 0 mm 2 mps 761 mmHg 81%
    06:00 +8°C° 0 mm 2 mps 761 mmHg 80%
    07:00 +8°C° 0 mm 2 mps 762 mmHg 80%
    08:00 +9°C° 0 mm 2 mps 762 mmHg 76%
    09:00 +10°C° 0 mm 2 mps 763 mmHg 72%
    10:00 +12°C° 0 mm 2 mps 763 mmHg 69%
    11:00 +13°C° 0.1 mm 2 mps 763 mmHg 70%
    12:00 +13°C° 0.1 mm 2 mps 763 mmHg 71%
    13:00 +12°C° 0.1 mm 3 mps 763 mmHg 71%
    14:00 +12°C° 0.3 mm 3 mps 763 mmHg 76%
    15:00 +11°C° 0.3 mm 4 mps 763 mmHg 80%
    16:00 +11°C° 0.3 mm 4 mps 763 mmHg 84%
    17:00 +11°C° 0.4 mm 4 mps 764 mmHg 85%
    18:00 +9°C° 0.4 mm 5 mps 764 mmHg 86%
    19:00 +9°C° 0.4 mm 5 mps 765 mmHg 87%
    20:00 +9°C° 0.1 mm 6 mps 765 mmHg 86%
    21:00 +9°C° 0.1 mm 6 mps 765 mmHg 84%
    22:00 +9°C° 0.1 mm 6 mps 766 mmHg 82%
    23:00 +8°C° 0.1 mm 6 mps 766 mmHg 82%
    Show more